Weather in Yangiyer

Uzbekistan     40˚16′26″N   68˚48′49″E
temp.,
°C
wind,
m/s
gust,
m/s
humid.,
%
clouds,
%
prec.,
mm/h
press.,
hPa
HPBL,
m
29 november, sun
sun2923:00+1˚ne128059 0.0 104122
02:00ene22870 0.0 104022
05:00−1˚ne23840 0.0 103922
08:00−1˚e23780 0.0 103835
11:00+4˚ene34641 0.0 1037568
14:00+6˚ne234914 0.0 1035889
17:00+4˚nne234910 0.0 103524
20:00+2˚ne1249100 0.0 103522
30 november, mon
mon3023:00+1˚e0156100 0.0 103522
02:00nne125673 0.0 103322
05:00−1˚ese237736 0.0 103330
08:00e368097 0.0 1032156
11:00+4˚ne475698 0.0 1030556
14:00+6˚ene5843100 0.0 1028702
17:00+4˚ne3447100 0.0 1027128
20:00+3˚ene1251100 0.0 102725
1 december, tue
tue123:00+2˚ene2253100 0.0 102744
02:00+2˚ene1250100 0.0 102739
05:00+2˚e125598 0.0 102630
08:00+3˚ese2455100 0.1 1027109
11:00+5˚e4649100 0.1 1027284
14:00+8˚e4651100 0.0 1026250
17:00+7˚ese8145084 0.0 1027315
20:00+6˚ese9184310 0.0 1028384
2 december, wed
wed223:00+6˚ese918445 0.0 1028398
02:00+6˚ese8164270 0.0 1027357
05:00+6˚ese7134585 0.0 1027263
08:00+7˚ese7124496 0.0 1027228
11:00+11˚ese8103698 0.0 1026343
14:00+12˚ese6734100 0.0 1025443
17:00+10˚ese4738100 0.0 1025184
20:00+10˚ese594194 0.1 1025246
3 december, thu
thu323:00+9˚se4104495 0.2 1024212
02:00+6˚s236482 0.0 102369
05:00+6˚se595691 0.0 1023210
08:00+6˚se4859100 0.0 1023163
11:00+9˚e5849100 0.0 1023537
14:00+11˚e3545100 0.0 1021687
17:00+9˚nne1160100 0.0 102245
20:00+7˚nw2381100 0.2 1022224